Location: Cointrin
(46.2167°N, 6.1167°E)
Time: 05:14:27
(UTC+00:00)

Meteor 2-2 Rocket - Pass Details

Date: 08 February 2023
Orbit: 853 x 927 km, 81.3° (Epoch: 25 March)

Event Time Altitude Azimuth Distance (km) Brightness Sun altitude
Rises 19:19:19 0° 347° (NNW) 3,442 7.6 -26.1°
Reaches altitude 10° 19:21:44 10° 346° (NNW) 2,508 6.9 -26.5°
Maximum altitude 19:27:25 74° 262° (W) 906 4.3 -27.5°
Enters shadow 19:30:29 29° 183° (S) 1,566 5.5 -28.0°
